FLOCK 2K-40

Last updated on Wed Feb 14 2018 16:20:52 GMT+0000 (Coordinated Universal Time)

1 42865U 17042AS 18045.51424630 .00007701 00000-0 22381-3 0 9996 2 42865 96.9931 308.3125 0010281 187.8412 172.2674 15.35672812 32801
UTC large
Height (km)
Speed (km/s)
/
Latitude / Longitude
Inclination (degrees)
Orbital Period (minutes)
Azimuth
Elevation
Range (km)
Doppler Factor

Next 0 passes for location: London (51.5072 / 0.1276)

Sorry there are no passes over London.